Theta_e
323 321 322 322 322 321 325 327 329 329 324 329 329 331 331 333 335 336 336 337 337 337 336 336 334 333 340 332 332 332 341 338 336 327 331 334 332 327 327 330 329 327 325 328
321 322 322 323 323 325 327 325 324 322 329 330 329 330 330 331 332 334 335 335 336 336 335 335 338 339 335 333 329 328 334 332 334 330 329 335 331 329 329 327 327 325 324 325
323 323 323 324 325 325 325 327 327 326 327 327 328 327 326 328 329 332 335 334 336 336 335 337 341 339 333 333 330 329 327 327 326 327 332 329 330 329 328 327 328 328 326 325
322 321 323 323 325 325 327 326 327 328 324 329 326 327 326 325 325 326 330 337 336 337 338 339 338 334 332 334 332 326 328 329 327 328 329 329 329 328 328 327 326 326 324 323
323 324 325 327 327 326 330 327 327 327 325 327 328 330 326 323 324 324 335 337 339 338 339 339 335 334 333 335 330 330 331 333 332 332 332 331 330 329 328 327 326 325 323 322
323 325 325 328 327 328 327 325 323 324 324 329 327 327 326 325 324 326 334 339 341 340 337 336 336 332 331 328 331 334 332 332 330 329 330 329 328 327 327 324 323 322 321 320
326 328 328 327 328 326 324 323 325 328 330 330 325 327 325 325 325 329 331 336 335 333 332 331 330 329 329 330 332 330 330 329 330 329 330 328 325 324 322 321 320 319 317 316
328 330 329 330 329 329 328 324 325 330 332 330 325 328 326 324 325 330 331 331 332 332 330 329 328 328 328 327 326 325 325 324 324 323 321 320 321 321 319 317 315 314 313 312
329 331 329 331 329 327 330 331 326 326 324 326 326 325 326 326 327 328 329 329 329 330 329 328 326 325 325 324 324 323 323 323 322 322 321 320 318 316 314 311 308 307 307 308
328 331 331 331 329 328 326 328 327 325 326 331 328 327 325 327 327 326 326 328 328 328 326 326 325 324 324 324 323 323 322 321 320 320 319 317 316 314 309 307 307 307 307 307
327 328 332 329 329 330 327 329 327 323 322 326 329 327 327 326 326 326 326 326 326 328 327 325 323 322 323 322 321 322 321 319 318 318 317 315 313 310 308 307 308 308 309 309
329 327 331 331 330 330 328 329 324 324 327 325 325 331 325 326 326 326 327 326 325 327 326 323 321 321 321 322 323 322 319 319 318 316 314 312 310 308 308 307 308 308 309 309
327 327 329 329 326 327 331 330 326 323 323 329 328 329 326 327 327 327 328 325 322 323 322 321 321 321 322 323 323 321 319 317 316 315 313 311 309 308 307 308 308 309 309 309
327 324 327 327 326 328 330 330 329 326 326 329 330 330 328 328 327 328 326 324 321 321 321 321 320 321 322 323 322 320 318 317 316 314 312 310 308 309 309 309 309 309 309 309
319 329 328 328 329 331 331 332 331 330 328 329 328 330 327 326 326 326 325 323 321 320 321 320 320 322 321 322 321 318 317 316 314 313 311 309 309 309 309 309 309 309 308 308
324 332 330 330 330 330 331 328 329 330 330 329 329 331 328 328 327 327 325 323 321 320 320 320 321 322 322 321 319 317 316 315 313 311 309 308 309 309 309 309 309 309 308 308
329 326 325 330 329 329 330 332 329 329 328 329 330 327 327 326 327 326 325 324 321 320 319 320 321 322 322 320 318 317 316 314 313 310 308 309 309 309 309 309 309 309 309 309
328 327 325 329 328 330 328 330 331 332 331 328 327 326 326 326 327 326 325 325 321 320 319 320 322 322 321 319 318 316 315 314 310 308 308 309 310 309 309 310 310 310 310 310
324 324 329 329 329 330 332 332 330 331 331 330 328 327 326 327 327 326 324 322 321 320 320 320 322 321 319 317 316 315 314 312 309 308 308 309 309 309 309 310 310 310 310 310
324 322 327 326 330 334 329 330 331 329 331 330 329 328 327 327 325 324 322 321 321 320 320 320 322 320 318 317 316 316 314 311 309 308 308 309 308 308 310 309 310 310 310 310
327 326 327 327 329 328 327 330 330 328 325 330 330 329 328 326 326 326 321 321 320 319 320 321 322 319 317 317 316 315 314 311 310 310 308 308 309 307 307 309 310 310 310 311
329 328 326 325 327 330 327 328 330 327 329 330 330 330 329 328 324 323 321 321 319 319 320 321 321 320 317 317 316 315 312 312 311 309 309 308 309 306 307 307 309 310 310 309
331 327 328 324 324 324 329 327 328 331 329 330 329 328 328 324 323 322 321 320 318 318 320 320 321 320 317 316 315 315 311 310 309 308 308 308 310 306 305 306 306 306 308 308
324 327 322 322 322 326 328 328 332 330 326 330 329 328 325 323 322 322 320 317 315 318 320 320 321 319 317 316 315 315 312 311 310 308 308 309 309 307 306 310 309 308 306 307
322 323 321 322 325 327 327 329 328 329 330 329 328 327 325 324 322 321 319 315 315 319 320 320 320 319 317 316 314 314 314 311 310 308 308 309 308 309 310 310 311 311 309 306
323 320 322 324 327 325 327 328 328 329 330 329 327 324 323 323 323 321 317 314 316 319 320 321 320 320 317 316 315 315 314 311 309 308 308 308 310 310 310 311 311 311 311 308
Wind_Speed
4 6 4 8 2 7 3 4 2 1 5 9 5 8 10 12 7 5 11 13 8 9 4 5 7 7 5 8 4 6 2 1 3 6 9 10 8 13 17 18 18 20 23 22
8 5 9 1 5 3 3 3 5 6 11 9 2 6 3 8 4 1 12 12 7 5 9 8 7 8 3 10 11 3 7 7 8 12 12 10 9 14 16 18 20 21 21 22
4 10 6 2 4 5 2 5 1 5 4 3 5 11 10 7 7 4 8 4 10 16 14 9 6 2 2 5 10 4 13 12 10 13 13 11 13 16 18 20 19 15 13 14
4 8 2 6 3 4 6 7 3 4 5 3 3 1 7 10 11 13 21 10 13 22 10 4 2 6 10 9 11 1 5 14 13 12 12 12 15 18 19 15 12 14 17 17
7 5 3 9 1 3 4 1 14 5 6 6 9 6 7 7 10 8 20 18 9 8 6 3 2 6 7 11 10 11 15 13 11 13 14 14 15 20 25 24 20 22 18 20
4 1 5 2 3 4 2 4 8 4 3 5 6 4 6 5 4 3 7 15 11 10 7 2 4 6 9 11 10 10 8 11 13 15 18 19 20 21 19 16 15 16 20 21
6 6 6 4 6 8 8 8 4 5 5 3 6 7 4 6 6 2 7 13 15 13 9 9 7 3 5 9 10 13 10 12 11 13 15 13 14 14 15 17 19 20 22 23
4 7 8 11 2 5 4 6 5 2 2 2 5 4 3 6 14 12 14 13 9 7 9 11 12 12 12 12 12 13 12 14 12 8 10 12 11 13 15 16 19 18 18 19
5 1 4 1 5 2 1 6 3 6 3 4 1 4 5 7 8 10 14 15 11 12 10 10 12 12 14 13 11 13 13 14 13 12 13 15 16 19 21 22 19 17 17 14
6 3 1 5 1 11 7 4 4 4 3 1 3 3 4 3 4 5 6 8 12 13 13 12 11 13 13 10 13 15 17 20 17 17 19 23 20 23 23 18 17 16 17 11
5 4 4 3 6 1 5 3 5 4 3 4 2 4 1 5 3 5 3 3 7 11 10 10 11 12 11 14 17 16 18 21 19 18 19 20 22 22 17 17 16 15 14 13
2 5 3 2 3 1 0 4 4 5 2 2 3 4 3 3 5 8 1 8 12 9 6 6 12 12 10 12 12 14 15 13 13 16 18 20 22 20 15 13 14 14 14 15
5 3 3 8 6 3 1 2 2 6 4 2 4 4 3 2 6 5 3 10 9 9 7 8 9 9 10 8 7 8 9 12 17 19 21 23 23 18 16 14 14 15 15 16
7 4 6 6 6 3 2 3 3 4 4 4 4 3 6 5 5 5 6 9 6 7 7 9 11 10 11 6 5 9 12 16 19 21 23 23 18 15 15 15 15 15 16 16
5 4 1 3 4 2 3 2 4 3 4 4 4 7 7 8 10 5 5 9 5 3 4 9 8 9 12 7 7 10 13 16 18 21 24 21 16 14 14 16 16 16 16 17
3 1 2 6 3 4 3 7 6 3 4 6 7 1 3 12 9 5 8 8 4 2 7 7 6 10 11 7 7 9 13 16 19 20 21 18 15 14 16 16 17 16 16 18
4 4 3 1 3 3 5 5 2 4 2 7 4 7 9 6 14 9 12 7 3 2 7 6 8 8 7 8 10 12 14 18 22 17 18 13 15 15 15 15 16 17 20 20
4 4 2 1 3 1 4 4 5 7 2 1 3 6 17 17 13 9 8 6 3 3 7 5 6 7 8 11 12 14 13 20 17 16 17 12 15 15 14 14 16 15 18 20
5 4 4 3 2 3 2 2 1 3 2 2 6 8 15 10 10 6 7 6 1 5 7 5 5 6 10 15 14 12 15 18 15 17 16 11 16 15 14 13 14 16 18 19
6 6 5 2 3 6 5 3 2 5 2 6 12 16 17 16 3 6 10 5 2 5 4 6 4 5 10 15 14 16 15 14 12 14 15 13 14 15 14 13 13 15 16 18
4 4 4 2 2 6 6 4 5 4 6 7 15 22 24 10 11 13 12 6 3 3 4 4 3 4 9 13 16 20 16 9 11 11 13 14 13 15 12 12 12 14 16 16
5 5 2 3 2 3 10 5 5 8 10 12 14 23 25 13 16 15 9 4 2 3 3 3 3 3 6 12 15 21 17 12 11 11 10 12 12 15 12 12 10 11 13 15
0 5 5 7 5 4 17 2 9 18 16 20 20 21 23 23 16 12 7 2 1 2 3 4 3 3 6 12 15 20 15 9 9 12 11 10 12 12 13 14 14 13 12 14
2 3 3 3 3 5 13 9 18 15 13 21 19 18 21 17 14 12 5 1 4 3 4 6 4 2 7 9 15 18 16 9 12 11 11 10 12 10 11 13 14 15 13 13
2 1 4 2 4 2 7 16 16 18 17 21 20 17 16 15 15 9 3 3 3 3 5 6 4 3 5 10 15 16 16 9 11 11 10 10 11 11 11 12 12 13 13 12
3 5 4 6 12 7 13 18 18 20 21 20 21 22 19 16 13 8 1 2 2 3 5 4 6 4 4 10 12 12 14 8 7 9 10 10 10 11 11 12 11 11 12 11
Wind_Direction
360 43 302 276 144 212 225 150 117 248 1 70 39 34 24 55 101 154 230 234 164 195 254 247 308 270 287 355 222 225 92 305 273 290 292 250 256 270 278 283 289 296 295 291
10 312 278 149 310 105 105 53 359 18 75 87 10 33 316 62 66 288 256 236 162 230 192 195 242 244 115 9 15 338 242 318 307 280 286 262 271 278 282 285 284 284 284 279
155 257 312 99 110 155 110 99 187 123 129 82 69 25 360 12 26 1 0 220 190 188 179 164 134 52 165 14 348 316 235 285 311 301 278 277 289 291 289 284 282 287 292 294
267 296 48 86 162 109 53 328 324 157 120 148 28 194 11 334 43 32 28 75 148 178 186 159 152 333 323 329 329 258 314 322 298 312 308 303 314 305 293 286 279 300 315 309
267 347 37 68 294 140 128 112 90 58 86 93 3 74 315 347 16 3 14 52 129 155 185 337 304 352 326 320 321 306 309 331 314 322 314 310 309 304 301 308 322 329 329 322
294 338 41 174 66 42 80 83 50 52 75 42 316 108 333 4 315 347 37 69 97 109 135 131 311 348 354 341 333 353 329 326 317 316 319 321 316 314 323 332 335 332 326 321
341 22 332 26 43 18 61 56 6 17 21 194 320 63 344 346 3 89 77 91 110 116 97 67 41 6 350 7 343 344 347 336 328 319 318 330 335 340 342 338 331 320 310 306
65 4 360 333 47 139 33 101 138 147 153 245 356 48 314 357 49 83 107 107 105 90 82 67 61 60 59 51 35 32 21 12 10 354 352 353 352 346 339 332 325 316 312 310
124 271 308 336 17 19 33 46 188 102 11 65 307 92 21 9 46 79 90 87 73 78 92 89 69 54 41 22 14 19 14 18 13 11 10 6 359 353 350 343 342 346 341 343
189 111 60 283 294 38 95 150 32 14 113 112 332 107 182 261 317 330 56 100 84 91 85 72 50 32 25 23 23 13 13 15 10 7 7 359 353 352 352 0 358 4 12 15
130 104 291 2 19 292 15 27 58 113 108 147 167 269 151 200 284 301 228 69 77 99 79 60 42 31 20 14 7 8 16 16 17 7 3 3 2 0 3 8 17 21 22 21
350 117 95 128 240 7 56 148 126 114 288 52 127 269 207 204 287 294 252 109 104 114 97 57 31 19 11 7 2 11 18 12 15 11 8 7 5 8 11 18 24 24 22 14
179 22 43 346 354 5 25 84 109 108 97 184 125 253 142 88 268 218 163 133 107 101 76 36 20 22 16 6 2 9 11 16 14 10 5 2 4 15 28 29 24 22 21 20
118 117 152 183 209 150 236 164 118 101 108 173 205 167 231 211 240 179 127 137 113 69 30 26 14 10 12 358 350 2 5 8 7 1 0 1 14 20 19 19 18 21 20 22
89 116 152 251 250 124 44 307 156 146 156 135 197 171 203 186 208 154 160 152 120 81 35 16 4 8 14 0 351 1 6 7 5 4 4 12 15 19 26 27 27 25 24 22
38 108 123 16 322 24 54 8 105 96 116 73 109 257 142 189 190 220 183 166 141 53 16 3 2 8 14 20 4 6 9 10 7 5 11 14 18 25 30 28 29 28 26 18
75 113 70 337 350 87 22 334 38 99 83 133 154 219 150 174 209 212 172 175 168 18 360 358 358 8 17 9 8 6 10 14 4 6 13 28 21 28 30 33 31 33 34 29
114 90 73 171 26 355 263 39 89 108 32 279 121 154 174 191 196 188 190 198 175 351 354 353 360 10 17 13 11 3 19 8 12 16 19 32 28 28 33 35 35 37 30 29
93 110 75 114 115 296 157 229 230 117 270 205 142 143 179 171 152 191 211 188 285 350 350 354 359 6 17 18 14 15 10 5 28 27 24 34 24 26 33 36 37 33 31 29
66 73 107 99 132 205 238 184 93 104 293 206 174 179 173 159 155 235 187 195 286 336 345 360 359 12 24 25 17 7 8 9 33 29 26 24 22 21 27 30 27 29 30 31
35 21 117 114 163 283 238 185 117 94 240 163 199 189 177 187 216 180 176 190 249 314 354 358 342 12 32 22 10 4 6 19 14 4 16 9 13 17 22 20 27 32 31 28
155 130 157 89 110 262 171 121 160 174 159 178 192 197 197 208 159 153 165 179 239 316 7 352 321 348 22 16 11 10 11 23 16 12 359 9 22 24 30 30 30 26 27 29
76 174 182 174 210 256 177 188 177 168 166 176 180 183 186 162 159 161 160 174 329 330 3 356 290 309 17 16 11 9 13 25 15 11 25 34 23 36 42 44 40 33 32 34
319 147 117 109 258 218 199 195 172 179 182 182 189 179 174 166 167 165 161 1 359 352 354 358 302 306 14 6 4 6 12 12 5 16 32 34 27 44 39 34 35 36 39 38
202 114 136 301 287 159 181 191 182 181 189 184 183 181 186 188 178 176 145 335 346 350 346 356 338 304 339 2 2 2 9 9 10 27 34 39 38 49 39 30 35 31 30 38
188 175 151 215 207 179 209 189 191 192 188 189 186 185 190 192 181 167 194 328 357 336 339 336 336 297 321 3 354 356 8 12 20 37 45 44 46 36 37 37 35 33 35 39